Tracking 19827 objects as of 22-Aug-2019
HD Live streaming from Space Station
objects crossing your sky now

METEOR 1-11

Track METEOR 1-11 now!
10-day predictions
METEOR 1-11 is classified as:


NORAD ID: 5917
Int'l Code: 1972-022A
Perigee: 847.2 km
Apogee: 894.8 km
Inclination: 81.2 °
Period: 102.2 minutes
Semi major axis: 7242 km
RCS: 4.5529 m2 (large)
Launch date: March 30, 1972
Source: Commonwealth of Independent States (former USSR) (CIS)
Launch site: PLESETSK MISSILE AND SPACE COMPLEX (PKMTR)
aabbcc
Your satellite tracking list
Your tracking list is empty




NASA's NSSDC Master Catalog

Two Line Element Set (TLE):
1  5917U 72022A   19233.95975311 -.00000002 +00000-0 -86540-5 0  9995
2  5917 081.2250 191.0696 0032910 158.1037 202.1548 14.08688314433739
Source of the keplerian elements: AFSPC